Regional Weather Roundup
Issued by NWS

Home | Current Version | Previous Version | Graphics & Text | Print | Product List | Glossary On
Versions: 1 2 3 4 5 6 7 8 9 10 11 12 13 14 15 16 17 18 19 20 21 22 23 24 25 26 27 28 29 30 31 32 33 34 35 36 37 38 39 40 41 42 43 44 45 46 47 48 49 50
000
ASUS43 KFSD 110910
RWRSD

WEATHER ROUNDUP FOR SOUTH DAKOTA
NATIONAL WEATHER SERVICE SIOUX FALLS SD
400 AM CDT FRI JUL 11 2014

NOTE: "FAIR" INDICATES FEW OR NO CLOUDS BELOW 12,000 FEET WITH NO
SIGNIFICANT WEATHER AND/OR OBSTRUCTIONS TO VISIBILITY.


SDZ001>005-009-010-012>017-111000-
NORTHWEST AND NORTH CENTRAL SOUTH DAKOTA

CITY           SKY/WX    TMP DP  RH WIND       PRES   REMARKS
BUFFALO          N/A     64  61  90 CALM      29.85S
FAITH            N/A     69  67  93 S3        29.87S
MOBRIDGE       CLEAR     65  64  97 CALM      29.81R
$$

SDZ012>016-024>037-041>051-057-063-072>074-111000-
SOUTHWEST AND SOUTH CENTRAL SOUTH DAKOTA

CITY           SKY/WX    TMP DP  RH WIND       PRES   REMARKS
RAPID CTY ARPT MOCLDY    67  62  84 CALM      29.92S
PIERRE         CLEAR     68  67  96 CALM      29.82R
CUSTER         MOCLDY    67  53  61 NW5       30.08F
ELLSWORTH AFB  CLOUDY    69  61  74 NW3       29.92S
PHILIP         PTCLDY    68  63  84 W6        29.86F
PINE RIDGE     CLOUDY    65  63  93 SW3       29.95F
WINNER         FAIR      74  63  68 S15       29.91R
$$

SDZ004>011-016>023-039-040-111000-
NORTHEAST SOUTH DAKOTA

CITY           SKY/WX    TMP DP  RH WIND       PRES   REMARKS
ABERDEEN       CLEAR     69  67  93 S9        29.81R
WATERTOWN      PTCLDY    70  66  87 S13       29.86S
SISSETON         N/A     75  68  78 SW16G24   29.79R
$$

SDZ017-020-022-023-036>040-048>070-111000-
SOUTHEAST SOUTH DAKOTA

CITY           SKY/WX    TMP DP  RH WIND       PRES   REMARKS
SIOUX FALLS    LGT RAIN  70  67  90 S18G25    29.91F
HURON          PTCLDY    73  66  78 S14G23    29.83R
CHAMBERLAIN    PTCLDY    71  68  91 S10       29.86S
MITCHELL       CLOUDY    72  68  87 S18G30    29.85F
YANKTON        CLOUDY    70  66  88 E7        29.96R
$$

ABBREVIATIONS USED IN REMARKS
   TC - TEMPERATURE IN CELSIUS
  WCI - WIND CHILL INDEX
   HX - HEAT INDEX
  VSB - VISIBILITY



USA.gov is the U.S. government's official web portal to all federal, state and local government web resources and services.